[[{"header":{"parameterUnit":"m.s-1","parameterCategory":1,"la1":30.2991,"la2":30.254,"lo1":-89.0895,"lo2":-89.0444,"dy":0.0017,"dx":0.0017,"nx":28,"ny":28,"refTime":"2023-09-16T21:00:00:Z","depth":0,"parameterNumber":2,"parameterNumberName":"U-component_of_WINDS"},"data":[0,0,0,0,0,0,0,0,0,0,0,0,0,0,0,0,0,0,0,0,0,0,0,0,0,0,0,0,0,0,0,0,0,0,0,0,0,0,0,0,0,0,0,0,0,0,0,0,0,0,0,0,0,0,0,0,0,0,0.1712,0.1713,0,0.1816,0.1817,0.1818,0.1903,0.1904,0.1905,0.1906,0.2013,0.2015,0.2017,0,0,0,0,0,0,0,0,0,0,0,0,0,0.1588,0.159,0.1712,0.1713,0.1715,0.1816,0.1817,0.1819,0.1903,0.1904,0.1905,0.1906,0.2012,0.2015,0.2017,0,0,0,0,0,0,0,0,0,0,0,0,0,0.1662,0.1591,0.1712,0.1769,0.1775,0.1815,0.1817,0.1819,0.1903,0.1904,0.1905,0.1906,0.2011,0.2014,0.2017,0.201,0,0,0.2027,0.2028,0,0,0,0,0,0,0,0,0.1658,0.1666,0.1759,0.1765,0.1772,0.1848,0.1813,0.1883,0.1902,0.1854,0.1906,0.1907,0.1957,0.1965,0.1981,0.2015,0.202,0.2027,0.2029,0.203,0.2031,0,0,0,0,0,0,0,0.1653,0.1662,0.1753,0.176,0.1768,0.179,0.1802,0.1827,0.1897,0.1858,0.1865,0.1876,0.1961,0.1978,0.1984,0.2021,0.2027,0.203,0.2032,0.2033,0.2054,0.2053,0,0,0,0,0,0,0.1638,0.1658,0.175,0.1756,0.1717,0.1791,0.1804,0.1822,0.1897,0.191,0.1875,0.1879,0.1972,0.1981,0.1988,0.1984,0.203,0.2033,0.2035,0.2055,0.2054,0.2052,0,0,0,0,0,0,0.1635,0.1646,0.1746,0.1709,0.1723,0.1792,0.1811,0.1823,0.1841,0.1909,0.1922,0.1879,0.1974,0.1984,0.2004,0.1989,0.2034,0.2037,0.2057,0.2055,0.2053,0.1976,0,0,0,0,0,0,0.1631,0.1644,0.1642,0.1708,0.1725,0.1759,0.181,0.1825,0.1846,0.1853,0.1917,0.1929,0.1975,0.1999,0.2007,0.1994,0.204,0.2059,0.2056,0.2054,0.198,0.1971,0.1964,0,0,0,0,0,0.1627,0.1616,0.1641,0.1652,0.1723,0.1758,0.1767,0.1821,0.1844,0.1842,0.1886,0.1927,0.199,0.2,0.201,0.1998,0.206,0.2057,0.2054,0.1983,0.1973,0.1964,0,0,0,0,0,0,0.1546,0.1626,0.1654,0.1665,0.1704,0.1772,0.1771,0.1808,0.1842,0.1847,0.1912,0.1926,0.1938,0.1971,0.1981,0.1995,0.203,0.2029,0.1973,0.1964,0.1956,0.1947,0.2042,0,0,0,0,0,0.153,0.1551,0.1619,0.1622,0.164,0.1702,0.1719,0.1757,0.18,0.1817,0.1863,0.1903,0.1933,0.195,0.1981,0.1985,0.2,0.1982,0.1974,0.1967,0.1965,0.197,0.1962,0.2043,0.2043,0.2043,0,0,0.1496,0.1542,0.1551,0.1607,0.1642,0.1662,0.1715,0.1735,0.1751,0.182,0.1841,0.1876,0.1926,0.1938,0.1946,0.1965,0.1946,0.1964,0.1958,0.196,0.1966,0.1958,0.1951,0.2041,0.2042,0.2042,0,0,0.1444,0.1481,0.1487,0.1521,0.1572,0.1614,0.1615,0.1678,0.1703,0.1726,0.1778,0.1799,0.1847,0.1881,0.1904,0.1865,0.1903,0.1873,0.1832,0.1835,0.1829,0.1824,0.1809,0.1803,0.1871,0.1871,0.1871,0,0.1395,0.1428,0.1485,0.1502,0.1525,0.1589,0.1595,0.1625,0.1684,0.1699,0.172,0.1782,0.182,0.1841,0.1831,0.1848,0.1852,0.1866,0.1825,0.182,0.1816,0.1803,0.1798,0.1867,0.1868,0.1868,0.1868,0,0.1365,0.1387,0.1386,0.144,0.1464,0.1475,0.1534,0.1551,0.1587,0.1626,0.1648,0.1696,0.1737,0.1746,0.1781,0.1771,0.1781,0.1813,0.185,0.1803,0.1792,0.1788,0.1861,0.1863,0.1864,0.1865,0,0,0.1264,0.1351,0.135,0.1375,0.1437,0.1456,0.147,0.151,0.1523,0.1562,0.1575,0.1615,0.1645,0.1671,0.1712,0.1715,0.168,0.1746,0.1748,0.1731,0.1671,0.1646,0.1639,0.1706,0.1706,0.1705,0.1667,0,0.1222,0.125,0.1303,0.1315,0.1336,0.1397,0.141,0.145,0.1487,0.1511,0.1552,0.1579,0.1617,0.1633,0.1639,0.1683,0.1669,0.1687,0.1719,0.172,0.1703,0.1633,0.1607,0.1568,0.1663,0.1662,0.1662,0,0.1175,0.121,0.1224,0.1285,0.1295,0.1306,0.1347,0.1369,0.1415,0.1442,0.1471,0.1515,0.1534,0.1568,0.1595,0.1606,0.1623,0.1647,0.1646,0.165,0.1687,0.1634,0.1557,0.1551,0.1655,0.1656,0.1656,0,0.1099,0.115,0.1165,0.1185,0.1256,0.1262,0.1292,0.134,0.136,0.1396,0.1411,0.1448,0.1469,0.1497,0.155,0.157,0.1571,0.161,0.1594,0.1592,0.159,0.1589,0.1513,0.1603,0.1603,0.1603,0.1603,0,0.1045,0.1051,0.1131,0.114,0.1149,0.1209,0.1216,0.1252,0.1294,0.1312,0.1368,0.1383,0.1452,0.1476,0.1518,0.1533,0.1542,0.1564,0.1575,0.1559,0.1556,0.157,0.1573,0.1601,0.1602,0.1602,0.1602,0,0.0961,0.1015,0.1035,0.1101,0.1118,0.1121,0.1178,0.1189,0.123,0.1251,0.1259,0.1324,0.1354,0.141,0.1456,0.1485,0.1491,0.151,0.1474,0.1481,0.1461,0.1462,0.139,0.1384,0.1478,0.1477,0.1476,0,0.0922,0.0928,0.0995,0.101,0.1038,0.1062,0.1083,0.1144,0.1164,0.1217,0.1222,0.1257,0.1287,0.1333,0.1384,0.142,0.144,0.1412,0.1445,0.1428,0.1438,0.1436,0.1437,0.1404,0.1403,0.1402,0.1401,0,0.0848,0.0874,0.0903,0.094,0.0964,0.0996,0.1032,0.1041,0.111,0.113,0.1161,0.1185,0.1232,0.1266,0.1309,0.1341,0.1382,0.139,0.1388,0.1371,0.1349,0.1359,0.1453,0.1391,0.1392,0.1393,0.1394,0.1394,0.0785,0.0793,0.084,0.087,0.0903,0.0935,0.0949,0.0991,0.1018,0.1061,0.1096,0.1124,0.1171,0.1233,0.1262,0.1286,0.1305,0.1302,0.1301,0.1299,0.1292,0.1346,0.1294,0.1294,0.1295,0.1295,0.1295,0,0.0712,0.0746,0.0773,0.082,0.0844,0.0881,0.0922,0.0939,0.0963,0.1003,0.1033,0.1069,0.1101,0.1155,0.1192,0.1201,0.1221,0.1208,0.1208,0.1214,0.1273,0.1271,0.1192,0.1192,0.1192,0.1192,0.1192,0.1192,0.0677,0.0692,0.0724,0.0756,0.0791,0.0818,0.0839,0.0869,0.0901,0.0938,0.0966,0.1,0.1046,0.1087,0.1119,0.1134,0.1145,0.1126,0.1147,0.1201,0.121,0.1219,0.1217,0.1128,0.1128,0.1086,0.1085,0.1085]},{"header":{"parameterUnit":"m.s-1","parameterCategory":1,"la1":30.2991,"la2":30.254,"lo1":-89.0895,"lo2":-89.0444,"dy":0.0017,"dx":0.0017,"nx":28,"ny":28,"refTime":"2023-09-16T21:00:00:Z","depth":0,"parameterNumber":3,"parameterNumberName":"V-component_of_WINDS"},"data":[0,0,0,0,0,0,0,0,0,0,0,0,0,0,0,0,0,0,0,0,0,0,0,0,0,0,0,0,0,0,0,0,0,0,0,0,0,0,0,0,0,0,0,0,0,0,0,0,0,0,0,0,0,0,0,0,0,0,0.4954,0.4953,0,0.4864,0.4863,0.4862,0.4729,0.4726,0.4724,0.4722,0.4633,0.4633,0.4632,0,0,0,0,0,0,0,0,0,0,0,0,0,0.5012,0.5012,0.4954,0.4953,0.4952,0.4864,0.4863,0.4862,0.4729,0.4726,0.4723,0.4721,0.4633,0.4633,0.4632,0,0,0,0,0,0,0,0,0,0,0,0,0,0.4961,0.5012,0.4954,0.4875,0.4867,0.4864,0.4863,0.4861,0.473,0.4726,0.4723,0.4719,0.4633,0.4633,0.4632,0.4701,0,0,0.4632,0.4631,0,0,0,0,0,0,0,0,0.4964,0.4959,0.4888,0.488,0.4871,0.4804,0.4851,0.4808,0.4731,0.4782,0.4722,0.4718,0.4693,0.4687,0.4678,0.4697,0.4693,0.4632,0.4631,0.4631,0.4631,0,0,0,0,0,0,0,0.4968,0.4962,0.4918,0.4887,0.4877,0.4844,0.4833,0.4842,0.4758,0.4777,0.4767,0.4758,0.4688,0.4679,0.4675,0.4692,0.4632,0.4631,0.4631,0.4631,0.4759,0.4762,0,0,0,0,0,0,0.4983,0.4966,0.4921,0.4916,0.491,0.4846,0.4834,0.4829,0.4758,0.4743,0.4761,0.4752,0.4681,0.4676,0.4672,0.4744,0.4631,0.4631,0.4631,0.4755,0.476,0.4764,0,0,0,0,0,0,0.4985,0.498,0.4925,0.4938,0.4928,0.4849,0.4845,0.4829,0.482,0.4746,0.473,0.4768,0.4678,0.4672,0.4694,0.4739,0.4631,0.4631,0.4751,0.4757,0.4762,0.4892,0,0,0,0,0,0,0.4987,0.4982,0.5006,0.494,0.4928,0.4948,0.4848,0.483,0.482,0.4807,0.4747,0.4734,0.4675,0.4695,0.4694,0.4737,0.463,0.4747,0.4754,0.476,0.4883,0.4901,0.4916,0,0,0,0,0,0.4989,0.5048,0.5008,0.5004,0.4958,0.4951,0.4945,0.4874,0.4824,0.4848,0.48,0.4736,0.4735,0.4698,0.4696,0.474,0.4744,0.4752,0.476,0.4875,0.4897,0.4916,0,0,0,0,0,0,0.5124,0.5038,0.4993,0.5031,0.4999,0.4929,0.4957,0.49,0.4882,0.4871,0.4786,0.4774,0.4805,0.4775,0.4735,0.4801,0.4729,0.4737,0.4819,0.4839,0.4855,0.486,0.463,0,0,0,0,0,0.5158,0.5159,0.5084,0.5125,0.5111,0.5038,0.5032,0.498,0.4944,0.493,0.4884,0.4852,0.4843,0.484,0.4829,0.4879,0.4863,0.4908,0.4925,0.4939,0.4945,0.4966,0.4984,0.479,0.479,0.479,0,0,0.5228,0.5181,0.5187,0.5151,0.512,0.5123,0.5027,0.5035,0.5036,0.4932,0.4947,0.4913,0.4872,0.4907,0.492,0.4883,0.4996,0.4949,0.4961,0.4959,0.4976,0.4995,0.5011,0.4795,0.4794,0.4794,0,0,0.5356,0.5322,0.5351,0.5322,0.5275,0.5226,0.5233,0.5171,0.5143,0.5158,0.5079,0.508,0.5069,0.5041,0.5026,0.5143,0.5083,0.5143,0.5228,0.5249,0.5265,0.5278,0.5316,0.5331,0.5151,0.5151,0.5151,0,0.5449,0.5449,0.5373,0.5385,0.537,0.5276,0.5304,0.528,0.5233,0.5225,0.5184,0.5166,0.5132,0.5157,0.5186,0.5178,0.5182,0.5147,0.5269,0.5281,0.5292,0.5327,0.5343,0.5158,0.5157,0.5156,0.5156,0,0.5564,0.5566,0.5595,0.5549,0.5539,0.556,0.5487,0.5485,0.5435,0.539,0.5406,0.5361,0.5338,0.5341,0.5293,0.536,0.5337,0.5284,0.521,0.5319,0.5351,0.5364,0.5168,0.5166,0.5164,0.5162,0,0,0.5771,0.5684,0.5696,0.5673,0.5615,0.5615,0.5631,0.5607,0.5606,0.5578,0.5587,0.558,0.5529,0.5512,0.5461,0.548,0.5571,0.5423,0.5421,0.5449,0.5638,0.5676,0.5693,0.5533,0.5535,0.5537,0.564,0,0.5885,0.5905,0.5837,0.5875,0.5874,0.5784,0.5798,0.5764,0.5723,0.5716,0.5671,0.5665,0.5601,0.5589,0.5605,0.5557,0.5608,0.5549,0.5539,0.5539,0.5547,0.571,0.575,0.5849,0.5653,0.5655,0.5656,0,0.6019,0.5996,0.6033,0.5971,0.5968,0.5981,0.5952,0.5948,0.5908,0.5876,0.5857,0.5797,0.5807,0.5739,0.5752,0.5713,0.5706,0.5682,0.5684,0.5677,0.5602,0.5704,0.588,0.5893,0.5676,0.5674,0.5673,0,0.6162,0.614,0.6158,0.6143,0.6072,0.6083,0.6054,0.601,0.6,0.5976,0.5967,0.5946,0.5933,0.5918,0.5853,0.581,0.5872,0.5799,0.5844,0.5846,0.5858,0.5857,0.6031,0.586,0.586,0.586,0.586,0,0.6293,0.6318,0.6221,0.6232,0.6257,0.618,0.6208,0.617,0.6132,0.6134,0.6057,0.6061,0.5977,0.5971,0.5921,0.5936,0.5933,0.5906,0.5892,0.591,0.5913,0.5901,0.5891,0.5864,0.5863,0.5862,0.5861,0,0.6455,0.6391,0.6404,0.6337,0.632,0.6342,0.6283,0.629,0.6245,0.6248,0.6244,0.6172,0.6161,0.6096,0.6071,0.6037,0.6069,0.6043,0.6082,0.6072,0.6119,0.6114,0.6288,0.6305,0.6128,0.6129,0.6131,0,0.654,0.6557,0.6491,0.6486,0.646,0.6454,0.6442,0.6368,0.6359,0.6313,0.6326,0.6308,0.629,0.6277,0.6222,0.6202,0.6172,0.6235,0.6168,0.6186,0.6168,0.6166,0.6166,0.6247,0.625,0.6252,0.6253,0,0.6698,0.6665,0.6651,0.6625,0.6613,0.6589,0.6561,0.6562,0.6479,0.6473,0.646,0.6446,0.6419,0.6402,0.6372,0.6342,0.6283,0.6275,0.6283,0.6301,0.6321,0.6306,0.6116,0.627,0.6269,0.6267,0.6266,0.6266,0.6821,0.683,0.6785,0.6771,0.6742,0.6717,0.6719,0.6674,0.6661,0.6632,0.659,0.6582,0.654,0.6494,0.6469,0.6462,0.6428,0.6442,0.6444,0.6447,0.6456,0.6326,0.6457,0.6456,0.6456,0.6455,0.6455,0,0.697,0.6937,0.6925,0.6887,0.6876,0.6822,0.6788,0.6782,0.6776,0.6742,0.6725,0.6709,0.6692,0.6637,0.6614,0.6618,0.659,0.6614,0.6611,0.6604,0.6489,0.6482,0.6637,0.6637,0.6637,0.6637,0.6637,0.6637,0.7047,0.7059,0.7021,0.7019,0.6985,0.6975,0.696,0.6937,0.6909,0.6894,0.6879,0.6843,0.68,0.6773,0.6754,0.6738,0.6731,0.6764,0.6738,0.6631,0.6613,0.6596,0.6589,0.6764,0.6764,0.6853,0.6854,0.6855]}]]